User: anonymous
Location: Caltech
(34.1382°N, 118.1253°W)
Time: 05:40:41
(UTC-07:00)
Language:

Iridium 95 - Orbit

View from above orbital plane
View from above orbital plane
View from above satellite
View from above satellite

Ground track
Ground track

The orbit data is extracted from the following two-line orbital elements,

1 27375U 02005D   14231.41179806  .00000153  00000-0  47603-4 0  3995
2 27375 086.4017 359.1610 0002217 113.4980 246.6449 14.34217384662887
Epoch (UTC): 19 August 2014 09:52:59
Eccentricity: 0.0002217
inclination: 86.4017°
perigee height: 776 km
apogee height: 779 km
right ascension of ascending node: 359.1610°
argument of perigee: 113.4980°
revolutions per day: 14.34217384
mean anomaly at epoch: 246.6449°
orbit number at epoch: 66288

The dashed part of the orbit path shows where the satellite is in the earth's shadow,  

DLR